Cotulla, TX

5:42 PM CST on November 18, 2019 (GMT -0600)
Cotulla-La Salle County

Weather History for KCOT - August, 2019

Change the Weather History Date:

Wednesday, August 21, 2019

  Actual Average Record
Temperature  
Mean Temperature 88 °F -  
Max Temperature 102 °F 95 °F 106 °F (2014)
Min Temperature 77 °F 73 °F 71 °F (1996)
Cooling Degree Days 24    
Growing Degree Days 38 (Base 50)    
Moisture  
Dew Point 68 °F    
Average Humidity 55    
Maximum Humidity 90    
Minimum Humidity 25    
Precipitation  
Precipitation 0.00 in - - ()
Sea Level Pressure  
Sea Level Pressure 29.93 in    
Wind  
Wind Speed 10 mph ()    
Max Wind Speed 23 mph    
Max Gust Speed 30 mph    
Visibility 10.0 miles    
Events      
Averages and records for this station are not official NWS values.
T = Trace of Precipitation, MM = Missing Value Source: Averaged Metar Reports

Daily Weather History Graph

Daily Weather History Graph

Search for Another Location

Airport or City:

Astronomy

Aug. 21, 2019 Rise Set
Actual Time 7:09 AM CDT 8:10 PM CDT
Civil Twilight 6:45 AM CDT 8:34 PM CDT
Nautical Twilight 6:16 AM CDT 9:03 PM CDT
Astronomical Twilight 5:46 AM CDT 9:33 PM CDT
Moon 11:57 PM CDT (8/21) 12:20 PM CDT (8/21)
Length of Visible Light 13h 49m
Length of Day
13h 00m
Waning Gibbous, 69% of the Moon is Illuminated
Aug 21
Waning Gibbous
Aug 23
Last Quarter
Aug 30
New
Sep 5
First Quarter
Sep 13
Full

Hourly Weather History & Observations

Time (CDT) Temp. Heat Index Dew Point Humidity Pressure Visibility Wind Dir Wind Speed Gust Speed Precip Events Conditions
12:53 AM 84.0 °F 89.0 °F 71.1 °F 65% 29.96 in 10.0 mi SSE 15.0 mph - N/A   Clear
1:53 AM 82.0 °F 86.3 °F 71.1 °F 69% 29.96 in 10.0 mi SSE 12.7 mph - N/A   Clear
2:53 AM 81.0 °F 85.2 °F 72.0 °F 74% 29.96 in 10.0 mi SSE 9.2 mph - N/A   Clear
3:53 AM 80.1 °F 84.2 °F 73.0 °F 79% 29.96 in 10.0 mi SSE 6.9 mph - N/A   Clear
4:53 AM 79.0 °F - 73.9 °F 84% 29.96 in 10.0 mi ESE 5.8 mph - N/A   Clear
5:53 AM 78.1 °F - 73.9 °F 87% 29.96 in 10.0 mi ESE 6.9 mph - N/A   Clear
6:53 AM 77.0 °F - 73.9 °F 90% 29.97 in 10.0 mi East 3.5 mph - N/A   Clear
7:53 AM 78.1 °F - 73.9 °F 87% 29.98 in 9.0 mi ESE 5.8 mph - N/A   Clear
8:53 AM 82.0 °F 88.6 °F 75.0 °F 79% 29.98 in 10.0 mi SE 6.9 mph - N/A   Clear
9:53 AM 84.9 °F 91.4 °F 73.0 °F 67% 29.99 in 10.0 mi Variable 6.9 mph - N/A   Partly Cloudy
10:53 AM 89.1 °F 94.1 °F 70.0 °F 53% 29.99 in 10.0 mi SE 9.2 mph - N/A   Partly Cloudy
11:53 AM 91.0 °F 95.2 °F 68.0 °F 47% 29.99 in 10.0 mi South 8.1 mph - N/A   Partly Cloudy
12:53 PM 93.9 °F 96.1 °F 64.9 °F 38% 29.97 in 10.0 mi South 11.5 mph 17.3 mph N/A   Scattered Clouds
1:53 PM 97.0 °F 98.3 °F 63.0 °F 32% 29.95 in 10.0 mi ESE 12.7 mph 18.4 mph N/A   Partly Cloudy
2:53 PM 98.1 °F 98.6 °F 61.0 °F 29% 29.91 in 10.0 mi SSE 10.4 mph 19.6 mph N/A   Scattered Clouds
3:53 PM 98.1 °F 98.1 °F 60.1 °F 28% 29.88 in 10.0 mi SSE 6.9 mph 17.3 mph N/A   Mostly Cloudy
4:53 PM 100.9 °F 101.0 °F 59.0 °F 25% 29.86 in 10.0 mi South 9.2 mph 19.6 mph N/A   Partly Cloudy
5:53 PM 99.0 °F 98.6 °F 59.0 °F 26% 29.84 in 10.0 mi SE 11.5 mph - N/A   Partly Cloudy
6:53 PM 100.0 °F 99.7 °F 57.9 °F 25% 29.83 in 10.0 mi SSE 11.5 mph - N/A   Partly Cloudy
7:53 PM 96.1 °F 96.4 °F 61.0 °F 31% 29.84 in 10.0 mi SE 20.7 mph - N/A   Mostly Cloudy
8:53 PM 93.0 °F 94.2 °F 63.0 °F 37% 29.86 in 10.0 mi SE 23.0 mph 29.9 mph N/A   Clear
9:53 PM 90.0 °F 92.4 °F 66.0 °F 45% 29.89 in 10.0 mi SE 23.0 mph - N/A   Partly Cloudy
10:53 PM 87.1 °F 91.3 °F 69.1 °F 55% 29.91 in 10.0 mi SE 17.3 mph - N/A   Clear
11:53 PM 84.0 °F 88.4 °F 70.0 °F 63% 29.92 in 10.0 mi SE 12.7 mph 23.0 mph N/A   Clear